Starlink 33784

operational
NORAD ID: 63453 Int'l Des: 2025-069 Owner: SPXS Country: US Constellation: starlink
LEOCIRCULAR

Über Starlink 33784

Beschreibung wird geladen...

Live-Position

3D-Globus wird geladen...

Nächste Überflüge

Höhenverlauf

Altitude vs Time

uPlot chart will show altitude changes over time

Zweizeiliger Elementsatz

1 63453U 25069W 25304.51419301 .00054102 00000-0 18285-2 0 9999
2 63453 53.1585 22.7461 0001246 80.0473 280.0668 15.30146310 33625
Epoch: 31. Okt. 2025 • Age: 20 hours

Aktueller Status

Höhe 488.5 km
Geschwindigkeit 7.62 km/s
Subsatellitenpunkt -39.09°S, 173.3°E
Startdatum 4. Apr. 2025
Alter 0.5 years
Typ internet

Technische Details

Klassifizierung Payload
Masse 575.00 kg
Trockenmasse 530.00 kg
Gesamtmasse 575.00 kg
Länge 0.30 m
Durchmesser 4.10 m
Spannweite 29.00 m
Form Box + pan
Hersteller SPXS
Bus-Typ Starlink V2MO
Phasenstatus In Orbit
Besitzer/Staat SPXS/US

Große Konstellationen

Loading constellations...